Regional Weather Roundup
Issued by NWS

Home | Current Version | Previous Version | Graphics & Text | Print | Product List | Glossary On
Versions: 1 2 3 4 5 6 7 8 9 10 11 12 13 14 15 16 17 18 19 20 21 22 23 24 25 26 27 28 29 30 31 32 33 34 35 36 37 38 39 40 41 42 43 44 45 46 47 48 49 50
000
ASUS43 KMKX 171721
RWRWI

WISCONSIN REGIONAL WEATHER ROUNDUP
NATIONAL WEATHER SERVICE MILWAUKEE/SULLIVAN WI
1100 AM CST WED DEC 17 2014

NOTE: "FAIR" INDICATES FEW OR NO CLOUDS BELOW 12,000 FEET WITH NO
SIGNIFICANT WEATHER AND/OR OBSTRUCTIONS TO VISIBILITY.

WIZ001-002-006>008-014>016-023>028-171800-
NORTHWEST WISCONSIN

CITY           SKY/WX    TMP DP  RH WIND       PRES   REMARKS
SUPERIOR ARPT  CLOUDY    19  11  73 N5        30.29S WCI  12
ASHLAND        CLOUDY    20  16  84 SW7       30.25S WCI  11
HAYWARD        CLOUDY    16   8  71 W5        30.24F HAZE    WCI   9
SIREN          MOSUNNY   16   8  73 N5        30.28S WCI   8
CUMBERLAND     FLURRIES  14   9  79 W5        30.25S WCI   6
RICE LAKE      PTSUNNY   17   9  72 N6        30.28S WCI   8
CHETEK         CLOUDY    16   9  73 CALM      30.27S
LADYSMITH      FLURRIES  18  10  71 W6        30.25F WCI   9
EAU CLAIRE     CLOUDY    19  11  70 W7        30.27S WCI  10
MENOMONIE      FLURRIES  18  12  75 W9        30.28S WCI   7
NEW RICHMOND   CLOUDY    15  11  82 NW6       30.29F WCI   7
OSCEOLA        FLURRIES  16  11  79 NW7       30.33S WCI   6
$$

WIZ003>005-009-010-017-018-171800-
NORTH CENTRAL WISCONSIN

CITY           SKY/WX    TMP DP  RH WIND       PRES   REMARKS
MANITOWISH WTR FLURRIES  16  12  84 W10       30.15S WCI   4
ARBOR VITAE    FLURRIES  19  14  79 NW7       30.15S WCI  10
WOODRUFF       FLURRIES  19  14  79 NW7       30.15S WCI  10
RHINELANDER    CLOUDY    17  11  77 W9        30.14F WCI   6
EAGLE RIVER    FLURRIES  19  14  82 NW10      30.12S WCI   7
LAND O LAKES   LGT SNOW  20  17  87 NW6       30.12F WCI  13
PHILLIPS       MOSUNNY   16   9  74 NW6       30.18F WCI   7
TOMAHAWK       FLURRIES  18  11  75 CALM      30.17F
MEDFORD        LGT SNOW  15  10  78 NW7       30.19F WCI   6
MERRILL        MOSUNNY   18  10  71 N7        30.18F WCI   8
$$

WIZ029-030-035-036-043>047-171800-
CENTRAL WISCONSIN

CITY           SKY/WX    TMP DP  RH WIND       PRES   REMARKS
WAUSAU         CLOUDY    18  10  71 W13       30.18F WCI   5
MOSINEE        NOT AVBL
MARSHFIELD     CLOUDY    20  12  71 N14       30.20S WCI   7
STEVENS POINT  FLURRIES  19  10  68 W9        30.20F WCI   8
WAUPACA        CLOUDY    26  15  62 NW13      30.21S WCI  15
WAUTOMA        CLOUDY    23  16  75 NW12      30.22F WCI  12
WISC RAPIDS    CLOUDY    21  13  71 NW14      30.23S WCI   8
CAMP DOUGLAS   PTSUNNY   21  18  86 W9        30.24F WCI  11
$$

WIZ011>013-019>022-031-037>040-048>050-171800-
NORTHEAST WISCONSIN

CITY           SKY/WX    TMP DP  RH WIND       PRES   REMARKS
ANTIGO         CLOUDY    18  12  77 NW12      30.14F WCI   5
SHAWANO        CLOUDY    25  14  65 NW14      30.18F WCI  13
OCONTO         CLOUDY    24  16  71 W15       30.15F WCI  11
STURGEON BAY   CLOUDY    23  16  74 NW15G22   30.13F WCI  10
GREEN BAY      MOSUNNY   25  15  66 W20       30.17F WCI  11
MANITOWOC      MOSUNNY   27  17  66 W17G24    30.16F WCI  14
APPLETON       PTSUNNY   23  12  63 NW16G23   30.19F WCI  10
CLINTONVILLE   PTSUNNY   25  14  63 W13G20    30.19S WCI  13
OSHKOSH        CLOUDY    24  15  68 NW15      30.19F WCI  11
$$

WIZ032>034-041-042-053>061-171800-
SOUTHWEST WISCONSIN

CITY           SKY/WX    TMP DP  RH WIND       PRES   REMARKS
LA CROSSE      CLOUDY    22  11  62 NW14      30.30R WCI   9
SPARTA         CLOUDY    22  13  69 W8        30.27S WCI  12
VIROQUA        CLOUDY    19  15  85 NW9       30.24S WCI   7
BOSCOBEL       CLOUDY    22  14  71 W8        30.29F WCI  12
PRAIRIE DU CHI CLOUDY    21  11  65 NW8       30.31S WCI  11
PLATTEVILLE    CLOUDY    21  17  83 W10G18    30.26F WCI  10
$$

WIZ056-057-062-063-064-067-068-171800-
SOUTH CENTRAL WISCONSIN

CITY           SKY/WX    TMP DP  RH WIND       PRES   REMARKS
REEDSBURG      FLURRIES  22  17  79 W8        30.23F WCI  13
BARABOO/DELLS  CLOUDY    23  15  72 NW8       30.23S WCI  13
LONE ROCK      CLOUDY    26  15  63 NW13      30.26F WCI  15
MINERAL POINT  FLURRIES  23  18  80 W8        30.23F WCI  14
MADISON        FLURRIES  24  14  65 NW9       30.23F WCI  14
MIDDLETON      CLOUDY    26  17  68 W13       30.23F WCI  14
WATERTOWN      CLOUDY    24  17  75 NW9       30.21F WCI  14
MONROE         CLOUDY    23  19  86 NW8       30.23F WCI  14
JANESVILLE     CLOUDY    27  16  63 NW12      30.24S WCI  16
$$

WIZ051-052-058>065-066-070>072-171800-
SOUTHEAST WISCONSIN

CITY           SKY/WX    TMP DP  RH WIND       PRES   REMARKS
MILWAUKEE      CLOUDY    26  15  63 W13       30.20F WCI  15
WAUKESHA       CLOUDY    23  16  74 W14       30.20F WCI  11
MILWAUKEE/TIMM CLOUDY    25  16  68 W14G21    30.21S WCI  13
RACINE         CLOUDY    26  16  65 NW15G22   30.22F WCI  14
BURLINGTON     CLOUDY    24  17  75 NW15      30.22S WCI  11
KENOSHA        CLOUDY    26  17  68 NW13      30.21F WCI  15
FOND DU LAC    FLURRIES  25  16  68 NW15      30.19F WCI  13
SHEBOYGAN      CLOUDY    24  13  62 NW17G25   30.17F WCI  11
WEST BEND      CLOUDY    25  18  74 W13G20    30.18F WCI  13
JUNEAU         CLOUDY    23  16  77 W6        30.22S WCI  15
$$

LSZ147-162-171800-
LAKE SUPERIOR

STATION/POSITION TIME  TEMP    WIND        PRES    WAVE
                       AIR SEA DIR/SP/G            HT/PER
                 (UTC) (F)     (DEG/KT/KT) (MB)    (FT/S)
DEVILS ISLAND    1700   24      20/ 13/ 15 1025.4F
PORT WING        1600   20     330/  7/ 11 1025.1R
SAXON HARBOR     1640   20     230/  6/ 11 1024.0R
$$

LMZ867-665-643>646-171800-
LAKE MICHIGAN

STATION/POSITION TIME  TEMP    WIND        PRES    WAVE
                       AIR SEA DIR/SP/G            HT/PER
                 (UTC) (F)     (DEG/KT/KT) (MB)    (FT/S)
CHAMBERS ISLAND  1600   25     250/  7/ 14 1020.0R
NORTHPORT PIER   1600   26     300/ 12/ 18 1019.3R
SISTER BAY       1558          310/ 21/ 27   N/A
ALGOMA LAKESHORE 1614          310/ 14/ 22   N/A
KEWAUNEE LAKESHO 1700   26     300/ 14/ 22 1019.7F
SHEBOYGAN LAKESH 1700   24 35  280/ 18/ 22 1022.9F
PORT WASHINGTON  1600   26     310/ 11/ 19 1023.4
MILWAUKEE LAKESH 1700   25     290/ 14/ 18   N/A
KENOSHA   LAKESH 1700   26     280/ 13/ 19 1023.4R
$$

TC  - TEMPERATURE IN CELSIUS
VSB - VISIBILITY IN STATUTE MILES
WCI - WIND CHILL INDEX
HX  - HEAT INDEX




USA.gov is the U.S. government's official web portal to all federal, state and local government web resources and services.